Time,TemperatureF,DewpointF,PressureIn,WindDirection,WindDirectionDegrees,WindSpeedMPH,WindSpeedGustMPH,Humidity,HourlyPrecipIn,Conditions,Clouds,dailyrainin,SoftwareType,DateUTC
2013-04-20 00:11:00,44.0,26.0,-100.00,NNW,333,6.0,9.0,48,0.00,,,0.00,,2013-04-20 07:11:00,
2013-04-20 00:21:00,44.0,26.0,-100.00,NNW,333,6.0,9.0,48,0.00,,,0.00,,2013-04-20 07:21:00,
2013-04-20 00:32:00,44.0,26.0,-100.00,NNW,333,6.0,9.0,48,0.00,,,0.00,,2013-04-20 07:32:00,
2013-04-20 00:42:00,44.0,26.0,-100.00,NNW,333,6.0,9.0,48,0.00,,,0.00,,2013-04-20 07:42:00,
2013-04-20 00:52:00,44.0,26.0,-100.00,NNW,333,6.0,9.0,48,0.00,,,0.00,,2013-04-20 07:52:00,
2013-04-20 02:21:00,44.0,28.0,-100.00,North,358,3.0,6.0,53,-99.99,,,0.00,,2013-04-20 09:21:00,
2013-04-20 02:32:00,44.0,28.0,-100.00,North,358,3.0,6.0,53,-99.99,,,0.00,,2013-04-20 09:32:00,
2013-04-20 02:43:00,44.0,28.0,-100.00,North,358,3.0,6.0,53,-99.99,,,0.00,,2013-04-20 09:43:00,
2013-04-20 02:52:00,44.0,28.0,-100.00,North,358,3.0,6.0,53,-99.99,,,0.00,,2013-04-20 09:52:00,
2013-04-20 03:12:00,44.0,29.0,-100.00,East,79,2.0,7.0,55,0.00,,,0.00,,2013-04-20 10:12:00,
2013-04-20 03:23:00,44.0,29.0,-100.00,East,79,2.0,7.0,55,0.00,,,0.00,,2013-04-20 10:23:00,
2013-04-20 03:33:00,44.0,29.0,-100.00,East,79,2.0,7.0,55,0.00,,,0.00,,2013-04-20 10:33:00,
2013-04-20 03:42:00,44.0,29.0,-100.00,East,79,2.0,7.0,55,0.00,,,0.00,,2013-04-20 10:42:00,
2013-04-20 03:52:00,44.0,29.0,-100.00,East,79,2.0,7.0,55,0.00,,,0.00,,2013-04-20 10:52:00,
2013-04-20 04:23:00,42.0,29.0,-100.00,ENE,59,2.0,5.0,60,0.00,,,0.00,,2013-04-20 11:23:00,
2013-04-20 04:32:00,42.0,29.0,-100.00,ENE,59,2.0,5.0,60,0.00,,,0.00,,2013-04-20 11:32:00,
2013-04-20 04:42:00,42.0,29.0,-100.00,ENE,59,2.0,5.0,60,0.00,,,0.00,,2013-04-20 11:42:00,
2013-04-20 04:52:00,42.0,29.0,-100.00,ENE,59,2.0,5.0,60,0.00,,,0.00,,2013-04-20 11:52:00,
2013-04-20 05:22:00,42.0,27.0,-100.00,NNE,22,3.0,6.0,56,0.00,,,0.00,,2013-04-20 12:22:00,
2013-04-20 05:32:00,42.0,27.0,-100.00,NNE,22,3.0,6.0,56,0.00,,,0.00,,2013-04-20 12:32:00,
2013-04-20 05:42:00,42.0,27.0,-100.00,NNE,22,3.0,6.0,56,0.00,,,0.00,,2013-04-20 12:42:00,
2013-04-20 05:51:00,42.0,27.0,-100.00,NNE,22,3.0,6.0,56,0.00,,,0.00,,2013-04-20 12:51:00,
2013-04-20 06:11:00,42.0,27.0,-100.00,ESE,104,2.0,5.0,54,0.00,,,0.00,,2013-04-20 13:11:00,
2013-04-20 06:21:00,42.0,27.0,-100.00,ESE,104,2.0,5.0,54,0.00,,,0.00,,2013-04-20 13:21:00,
2013-04-20 06:31:00,42.0,27.0,-100.00,ESE,104,2.0,5.0,54,0.00,,,0.00,,2013-04-20 13:31:00,
2013-04-20 06:42:00,42.0,27.0,-100.00,ESE,104,2.0,5.0,54,0.00,,,0.00,,2013-04-20 13:42:00,
2013-04-20 06:52:00,42.0,27.0,-100.00,ESE,104,2.0,5.0,54,0.00,,,0.00,,2013-04-20 13:52:00,
2013-04-20 07:11:00,43.0,27.0,-100.00,NE,34,2.0,5.0,53,0.00,,,-99.99,,2013-04-20 14:11:00,
2013-04-20 07:21:00,43.0,27.0,-100.00,NE,34,2.0,5.0,53,0.00,,,-99.99,,2013-04-20 14:21:00,
2013-04-20 07:31:00,43.0,27.0,-100.00,NE,34,2.0,5.0,53,0.00,,,-99.99,,2013-04-20 14:31:00,
2013-04-20 07:42:00,43.0,27.0,-100.00,NE,34,2.0,5.0,53,0.00,,,-99.99,,2013-04-20 14:42:00,
2013-04-20 07:51:00,43.0,27.0,-100.00,NE,34,2.0,5.0,53,0.00,,,-99.99,,2013-04-20 14:51:00,
2013-04-20 07:53:00,47.0,27.0,-100.00,NNE,15,3.0,7.0,45,0.00,,,0.00,,2013-04-20 14:53:00,
2013-04-20 08:11:00,47.0,27.0,-100.00,NNE,15,3.0,7.0,45,0.00,,,0.00,,2013-04-20 15:11:00,
2013-04-20 08:21:00,47.0,27.0,-100.00,NNE,15,3.0,7.0,45,0.00,,,0.00,,2013-04-20 15:21:00,
2013-04-20 08:33:00,47.0,27.0,-100.00,NNE,15,3.0,7.0,45,0.00,,,0.00,,2013-04-20 15:33:00,
2013-04-20 08:43:00,47.0,27.0,-100.00,NNE,15,3.0,7.0,45,0.00,,,0.00,,2013-04-20 15:43:00,
2013-04-20 09:12:00,53.0,28.0,-100.00,West,269,4.0,8.0,38,0.00,,,0.00,,2013-04-20 16:12:00,
2013-04-20 09:23:00,53.0,28.0,-100.00,West,269,4.0,8.0,38,0.00,,,0.00,,2013-04-20 16:23:00,
2013-04-20 09:32:00,53.0,28.0,-100.00,West,269,4.0,8.0,38,0.00,,,0.00,,2013-04-20 16:32:00,
2013-04-20 09:42:00,53.0,28.0,-100.00,West,269,4.0,8.0,38,0.00,,,0.00,,2013-04-20 16:42:00,
2013-04-20 09:52:00,53.0,28.0,-100.00,West,269,4.0,8.0,38,0.00,,,0.00,,2013-04-20 16:52:00,
2013-04-20 10:12:00,56.0,26.0,-100.00,West,275,4.0,9.0,31,0.00,,,0.00,,2013-04-20 17:12:00,
2013-04-20 10:22:00,56.0,26.0,-100.00,West,275,4.0,9.0,31,0.00,,,0.00,,2013-04-20 17:22:00,
2013-04-20 10:32:00,56.0,26.0,-100.00,West,275,4.0,9.0,31,0.00,,,0.00,,2013-04-20 17:32:00,
2013-04-20 10:42:00,56.0,26.0,-100.00,West,275,4.0,9.0,31,0.00,,,0.00,,2013-04-20 17:42:00,
2013-04-20 10:52:00,56.0,26.0,-100.00,West,275,4.0,9.0,31,0.00,,,0.00,,2013-04-20 17:52:00,
2013-04-20 11:22:00,63.0,15.0,-100.00,SSW,200,4.0,8.0,15,0.00,,,0.00,,2013-04-20 18:22:00,
2013-04-20 11:32:00,63.0,15.0,-100.00,SSW,200,4.0,8.0,15,0.00,,,0.00,,2013-04-20 18:32:00,
2013-04-20 11:41:00,63.0,15.0,-100.00,SSW,200,4.0,8.0,15,0.00,,,0.00,,2013-04-20 18:41:00,
2013-04-20 11:52:00,63.0,15.0,-100.00,SSW,200,4.0,8.0,15,0.00,,,0.00,,2013-04-20 18:52:00,
2013-04-20 12:11:00,66.0,21.0,-100.00,South,179,5.0,11.0,18,0.00,,,0.00,,2013-04-20 19:11:00,
2013-04-20 12:21:00,66.0,21.0,-100.00,South,179,5.0,11.0,18,0.00,,,0.00,,2013-04-20 19:21:00,
2013-04-20 12:32:00,66.0,21.0,-100.00,South,179,5.0,11.0,18,0.00,,,0.00,,2013-04-20 19:32:00,
2013-04-20 12:42:00,66.0,21.0,-100.00,South,179,5.0,11.0,18,0.00,,,0.00,,2013-04-20 19:42:00,
2013-04-20 12:52:00,66.0,21.0,-100.00,South,179,5.0,11.0,18,0.00,,,0.00,,2013-04-20 19:52:00,
2013-04-20 13:12:00,67.0,23.0,-100.00,SE,136,6.0,14.0,19,0.00,,,0.00,,2013-04-20 20:12:00,
2013-04-20 13:21:00,67.0,23.0,-100.00,SE,136,6.0,14.0,19,0.00,,,0.00,,2013-04-20 20:21:00,
2013-04-20 13:32:00,67.0,23.0,-100.00,SE,136,6.0,14.0,19,0.00,,,0.00,,2013-04-20 20:32:00,
2013-04-20 13:42:00,67.0,23.0,-100.00,SE,136,6.0,14.0,19,0.00,,,0.00,,2013-04-20 20:42:00,
2013-04-20 13:51:00,67.0,23.0,-100.00,SE,136,6.0,14.0,19,0.00,,,0.00,,2013-04-20 20:51:00,
2013-04-20 14:21:00,68.0,24.0,-100.00,South,182,5.0,14.0,19,0.00,,,0.00,,2013-04-20 21:21:00,
2013-04-20 14:32:00,68.0,24.0,-100.00,South,182,5.0,14.0,19,0.00,,,0.00,,2013-04-20 21:32:00,
2013-04-20 14:43:00,68.0,24.0,-100.00,South,182,5.0,14.0,19,0.00,,,0.00,,2013-04-20 21:43:00,
2013-04-20 14:52:00,68.0,24.0,-100.00,South,182,5.0,14.0,19,0.00,,,0.00,,2013-04-20 21:52:00,
2013-04-20 15:22:00,66.0,36.0,-100.00,WNW,287,5.0,10.0,33,0.00,,,0.00,,2013-04-20 22:22:00,
2013-04-20 15:32:00,66.0,36.0,-100.00,WNW,287,5.0,10.0,33,0.00,,,0.00,,2013-04-20 22:32:00,
2013-04-20 15:42:00,66.0,36.0,-100.00,WNW,287,5.0,10.0,33,0.00,,,0.00,,2013-04-20 22:42:00,
2013-04-20 15:52:00,66.0,36.0,-100.00,WNW,287,5.0,10.0,33,0.00,,,0.00,,2013-04-20 22:52:00,
2013-04-20 16:11:00,65.0,37.0,-100.00,WNW,288,5.0,10.0,36,0.00,,,0.00,,2013-04-20 23:11:00,
2013-04-20 16:22:00,65.0,37.0,-100.00,WNW,288,5.0,10.0,36,0.00,,,0.00,,2013-04-20 23:22:00,
2013-04-20 16:32:00,65.0,37.0,-100.00,WNW,288,5.0,10.0,36,0.00,,,0.00,,2013-04-20 23:32:00,
2013-04-20 16:41:00,65.0,37.0,-100.00,WNW,288,5.0,10.0,36,0.00,,,0.00,,2013-04-20 23:41:00,
2013-04-20 16:52:00,65.0,37.0,-100.00,WNW,288,5.0,10.0,36,0.00,,,0.00,,2013-04-20 23:52:00,
2013-04-20 17:11:00,65.0,39.0,-100.00,West,280,5.0,9.0,38,0.00,,,0.00,,2013-04-21 00:11:00,
2013-04-20 17:21:00,65.0,39.0,-100.00,West,280,5.0,9.0,38,0.00,,,0.00,,2013-04-21 00:21:00,
2013-04-20 17:32:00,65.0,39.0,-100.00,West,280,5.0,9.0,38,0.00,,,0.00,,2013-04-21 00:32:00,
2013-04-20 17:42:00,65.0,39.0,-100.00,West,280,5.0,9.0,38,0.00,,,0.00,,2013-04-21 00:42:00,
2013-04-20 17:51:00,65.0,39.0,-100.00,West,280,5.0,9.0,38,0.00,,,0.00,,2013-04-21 00:51:00,
2013-04-20 18:11:00,62.0,37.0,-100.00,WNW,298,5.0,10.0,40,0.00,,,0.00,,2013-04-21 01:11:00,
2013-04-20 18:21:00,62.0,37.0,-100.00,WNW,298,5.0,10.0,40,0.00,,,0.00,,2013-04-21 01:21:00,
2013-04-20 18:31:00,62.0,37.0,-100.00,WNW,298,5.0,10.0,40,0.00,,,0.00,,2013-04-21 01:31:00,
2013-04-20 18:41:00,62.0,37.0,-100.00,WNW,298,5.0,10.0,40,0.00,,,0.00,,2013-04-21 01:41:00,
2013-04-20 18:52:00,62.0,37.0,-100.00,WNW,298,5.0,10.0,40,0.00,,,0.00,,2013-04-21 01:52:00,
2013-04-20 19:11:00,57.0,36.0,-100.00,WNW,294,4.0,7.0,45,0.00,,,0.00,,2013-04-21 02:11:00,
2013-04-20 19:21:00,57.0,36.0,-100.00,WNW,294,4.0,7.0,45,0.00,,,0.00,,2013-04-21 02:21:00,
2013-04-20 19:31:00,57.0,36.0,-100.00,WNW,294,4.0,7.0,45,0.00,,,0.00,,2013-04-21 02:31:00,
2013-04-20 19:41:00,57.0,36.0,-100.00,WNW,294,4.0,7.0,45,0.00,,,0.00,,2013-04-21 02:41:00,
2013-04-20 19:51:00,57.0,36.0,-100.00,WNW,294,4.0,7.0,45,0.00,,,0.00,,2013-04-21 02:51:00,
2013-04-20 20:11:00,50.0,34.0,-100.00,ESE,113,1.0,6.0,55,0.00,,,0.00,,2013-04-21 03:11:00,
2013-04-20 20:21:00,50.0,34.0,-100.00,ESE,113,1.0,6.0,55,0.00,,,0.00,,2013-04-21 03:21:00,
2013-04-20 20:32:00,50.0,34.0,-100.00,ESE,113,1.0,6.0,55,0.00,,,0.00,,2013-04-21 03:32:00,
2013-04-20 20:42:00,50.0,34.0,-100.00,ESE,113,1.0,6.0,55,0.00,,,0.00,,2013-04-21 03:42:00,
2013-04-20 20:52:00,50.0,34.0,-100.00,ESE,113,1.0,6.0,55,0.00,,,0.00,,2013-04-21 03:52:00,
2013-04-20 21:12:00,44.0,34.0,-100.00,SE,136,2.0,4.0,68,0.00,,,0.00,,2013-04-21 04:12:00,
2013-04-20 21:22:00,44.0,34.0,-100.00,SE,136,2.0,4.0,68,0.00,,,0.00,,2013-04-21 04:22:00,
2013-04-20 21:33:00,44.0,34.0,-100.00,SE,136,2.0,4.0,68,0.00,,,0.00,,2013-04-21 04:33:00,
2013-04-20 21:42:00,44.0,34.0,-100.00,SE,136,2.0,4.0,68,0.00,,,0.00,,2013-04-21 04:42:00,
2013-04-20 21:52:00,44.0,34.0,-100.00,SE,136,2.0,4.0,68,0.00,,,0.00,,2013-04-21 04:52:00,
2013-04-20 22:12:00,43.0,32.0,-100.00,SE,129,2.0,6.0,65,0.00,,,0.00,,2013-04-21 05:12:00,
2013-04-20 22:22:00,43.0,32.0,-100.00,SE,129,2.0,6.0,65,0.00,,,0.00,,2013-04-21 05:22:00,
2013-04-20 22:32:00,43.0,32.0,-100.00,SE,129,2.0,6.0,65,0.00,,,0.00,,2013-04-21 05:32:00,
2013-04-20 22:42:00,43.0,32.0,-100.00,SE,129,2.0,6.0,65,0.00,,,0.00,,2013-04-21 05:42:00,
2013-04-20 22:52:00,43.0,32.0,-100.00,SE,129,2.0,6.0,65,0.00,,,0.00,,2013-04-21 05:52:00,
2013-04-20 23:21:00,42.0,22.0,-100.00,SE,135,2.0,4.0,45,0.00,,,0.00,,2013-04-21 06:21:00,
2013-04-20 23:32:00,42.0,22.0,-100.00,SE,135,2.0,4.0,45,0.00,,,0.00,,2013-04-21 06:32:00,
2013-04-20 23:42:00,42.0,22.0,-100.00,SE,135,2.0,4.0,45,0.00,,,0.00,,2013-04-21 06:42:00,
2013-04-20 23:51:00,42.0,22.0,-100.00,SE,135,2.0,4.0,45,0.00,,,0.00,,2013-04-21 06:51:00,